Regional Weather Roundup
Issued by NWS Sioux Falls, SD

Home | Current Version | Previous Version | Text Only | Print | Product List | Glossary On
Versions: 1 2 3 4 5 6 7 8 9 10 11 12 13 14 15 16 17 18 19 20 21 22 23 24 25 26 27 28 29 30 31 32 33 34 35 36 37 38 39 40 41 42 43 44 45 46 47 48 49 50
000
ASUS43 KFSD 031710
RWRFSD

WEATHER ROUNDUP FOR SE SOUTH DAKOTA/SW MINNESOTA/NW IOWA
NATIONAL WEATHER SERVICE SIOUX FALLS SD
1200 PM CDT WED JUN 03 2015

NOTE: "FAIR" INDICATES FEW OR NO CLOUDS BELOW 12,000 FEET WITH NO
SIGNIFICANT WEATHER AND OR OBSTRUCTIONS TO VISIBILITY.


SDZ038>040-050-052>070-031800-
SOUTHEAST SOUTH DAKOTA

CITY           SKY/WX    TMP DP  RH WIND       PRES   REMARKS
BROOKINGS      CLOUDY    66  61  82 NE6       29.85R
CHAMBERLAIN    PTSUNNY   67  59  73 NW15      29.92R
HURON          SUNNY     73  61  65 NW15      29.86R
MADISON        FAIR      66  66 100 W7        29.87R
MITCHELL       SUNNY     74  59  59 NW10      29.87R
SIOUX FALLS    CLOUDY    69  64  84 NW10      29.87R
WINNER         PTSUNNY   67  56  67 N20       29.95R
YANKTON        MOSUNNY   73  61  64 NW7       29.86R
$$

MNZ071-072-080-081-089-090-097-098-031800-
SOUTHWEST MINNESOTA

CITY           SKY/WX    TMP DP  RH WIND       PRES   REMARKS
FAIRMONT       CLOUDY    68  57  68 SW14      29.85R
JACKSON        CLOUDY    70  63  78 W12       29.85S
LUVERNE        CLOUDY    70  63  78 W6        29.86R
MARSHALL       CLOUDY    66  61  82 NW9       29.83R
MONTEVIDEO     RAIN      64  64 100 NE7       29.85R
PIPESTONE      LGT RAIN  70  63  78 W5        29.87R
REDWOOD FALLS  LGT RAIN  64  62  93 NE7       29.82R FOG
TRACY          CLOUDY    68  65  90 NW8       29.85R
WINDOM         RAIN      63  61  94 W6        29.85S
WORTHINGTON    PTSUNNY   64  59  82 N17       29.86R
$$

IAZ001>003-012>014-020>022-031-032-NEZ013-014-SDZ071-031800-
NORTHWEST IOWA

CITY           SKY/WX    TMP DP  RH WIND       PRES   REMARKS
CHEROKEE       CLOUDY    72  63  73 W13       29.85R
DENISON        CLOUDY    72  66  83 SW9G17    29.87R
ESTHERVILLE    CLOUDY    66  61  84 S10       29.84R
LE MARS        CLOUDY    70  63  78 N10       29.87R
ORANGE CITY    PTSUNNY   68  63  83 NW6       29.86S
SHELDON        CLOUDY    68  64  88 N15G21    29.85R
SIOUX CITY     PTSUNNY   77  63  61 N12G17    29.86R
SPENCER        CLOUDY    71  63  75 W16       29.85R
STORM LAKE     CLOUDY    73  61  64 W14       29.87R
$$

ABBREVIATIONS USED IN REMARKS
   TC - TEMPERATURE IN CELSIUS
  WCI - WIND CHILL INDEX
   HX - HEAT INDEX
  VSB - VISIBILITY




USA.gov is the U.S. government's official web portal to all federal, state and local government web resources and services.